K9JWM Weather Reports


time (UTC)temp
F
wind
direction
speed
knots
gust
knots
rain 1hr
in
rain 24hr
in
rain mn
in
humidity
%
barometer
mb
20260504192005 55 256 7.8 20.0 0.00 0.00 0.00 46 995.0
20260504191710 55 255 7.8 10.4 0.00 0.00 0.00 46 995.0
20260504191005 55 260 13.0 21.7 0.00 0.00 0.00 49 994.8
20260504190210 55 260 11.3 12.2 0.00 0.00 0.00 48 994.7
20260504190005 55 257 11.3 22.6 0.00 0.00 0.00 44 994.7
20260504185005 55 270 11.3 27.8 0.00 0.00 0.00 47 994.6
20260504184710 55 277 10.4 13.9 0.00 0.00 0.00 49 994.7
20260504184005 55 257 13.9 25.2 0.00 0.00 0.00 48 994.6
20260504183211 56 289 8.7 18.2 0.00 0.00 0.00 45 994.4
20260504182005 55 284 10.4 22.6 0.00 0.00 0.00 48 994.2
20260504181710 55 254 13.9 15.6 0.00 0.00 0.00 50 994.2
20260504181005 56 256 12.2 22.6 0.00 0.00 0.00 49 994.1
20260504180210 56 258 17.4 20.9 0.00 0.00 0.00 52 994.1
20260504180005 55 260 11.3 22.6 0.00 0.00 0.00 52 993.9
20260504175005 55 264 13.0 20.0 0.00 0.00 0.00 55 993.9
20260504174711 54 247 11.3 20.0 0.00 0.00 0.00 53 994.0
20260504174005 55 263 14.8 21.7 0.00 0.00 0.00 52 993.9
20260504173209 55 272 10.4 17.4 0.00 0.00 0.00 52 993.8
20260504173005 55 261 13.9 25.2 0.00 0.00 0.00 53 993.7
20260504172005 55 253 12.2 22.6 0.00 0.00 0.00 51 993.8
20260504171710 55 261 12.2 17.4 0.00 0.00 0.00 51 993.8
20260504171005 55 270 8.7 20.0 0.00 0.00 0.00 50 994.0
20260504170210 55 258 13.9 20.0 0.00 0.00 0.00 50 993.8
20260504160210 54 264 15.6 22.6 0.00 0.00 0.00 57 993.3
20260504150210 54 251 13.9 22.6 0.00 0.00 0.00 58 992.6
20260504141005 56 256 5.2 18.2 0.00 0.00 0.00 61 991.8
20260504140209 56 255 7.0 11.3 0.00 0.00 0.00 61 992.0
20260504130210 59 250 12.2 20.0 0.00 0.00 0.00 44 991.1
20260504120210 58 232 14.8 17.4 0.00 0.00 0.00 45 990.6
20260504110210 56 213 6.1 8.7 0.00 0.00 0.00 46 990.9
20260504100209 54 222 6.1 7.8 0.00 0.00 0.00 50 992.3
20260504081711 55 225 7.0 7.8 0.00 0.00 0.00 45 994.7
20260504081004 55 231 6.1 10.4 0.00 0.00 0.00 46 994.9
20260504050004 54 227 5.2 7.8 0.00 0.00 0.00 47 999.0
20260504045005 54 218 5.2 8.7 0.00 0.00 0.00 46 999.2
20260504044710 53 213 5.2 7.0 0.00 0.00 0.00 46 999.2
20260504044005 53 231 6.1 8.7 0.00 0.00 0.00 49 999.3
20260504043004 52 220 2.6 7.0 0.00 0.00 0.00 55 999.4
20260504042004 50 212 3.5 6.1 0.00 0.00 0.00 55 999.6
20260504041710 50 230 2.6 6.1 0.00 0.00 0.00 52 999.6
20260504040004 49 207 1.7 6.1 0.00 0.00 0.00 54 999.9
20260504034709 49 217 1.7 2.6 0.00 0.00 0.00 59 1000.3
20260504033005 50 216 1.7 5.2 0.00 0.00 0.00 65 1000.8
20260504032005 50 229 2.6 4.3 0.00 0.00 0.00 63 1000.9
20260504031710 50 225 2.6 2.6 0.00 0.00 0.00 63 1000.9
20260504025005 52 236 1.7 2.6 0.00 0.00 0.00 60 1001.2
20260504024710 52 265 0.9 1.7 0.00 0.00 0.00 60 1001.3
20260504024005 53 267 0.0 0.0 0.00 0.00 0.00 59 1001.3
20260504023005 53 267 0.0 0.0 0.00 0.00 0.00 57 1001.4
20260504022005 54 267 0.0 0.0 0.00 0.00 0.00 52 1001.4
20260504021710 54 267 0.0 0.0 0.00 0.00 0.00 49 1001.4
20260504021005 54 267 0.0 0.0 0.00 0.00 0.00 46 1001.5
20260504020004 55 267 0.0 0.0 0.00 0.00 0.00 43 1001.3
20260504015005 57 267 0.0 0.0 0.00 0.00 0.00 39 1001.3
20260504014710 57 267 0.0 0.0 0.00 0.00 0.00 39 1001.3
20260504013005 59 267 0.9 4.3 0.00 0.00 0.00 37 1001.5
20260504012004 60 258 0.9 2.6 0.00 0.00 0.00 36 1001.5
20260504011709 60 258 0.0 2.6 0.00 0.00 0.00 37 1001.6
20260504011005 61 258 1.7 2.6 0.00 0.00 0.00 35 1001.6
20260504010211 61 257 0.9 2.6 0.00 0.00 0.00 34 1001.5
20260504005005 61 267 0.9 4.3 0.00 0.00 0.00 33 1001.6
20260504004709 62 268 1.7 2.6 0.00 0.00 0.00 33 1001.6
20260504003005 62 279 1.7 7.8 0.00 0.00 0.00 33 1001.6
20260504002004 63 294 4.3 11.3 0.00 0.00 0.00 31 1001.8
20260504001709 63 260 4.3 6.1 0.00 0.00 0.00 31 1001.8
20260504001004 63 271 4.3 11.3 0.00 0.00 0.00 29 1001.8
20260504000004 63 252 2.6 7.8 0.00 0.00 0.00 30 1001.9
20260503235004 63 278 3.5 11.3 0.00 0.00 0.00 29 1002.0
20260503234710 63 272 2.6 4.3 0.00 0.00 0.00 30 1001.9
20260503232005 64 268 2.6 10.4 0.00 0.00 0.00 27 1001.9
20260503231710 64 282 4.3 10.4 0.00 0.00 0.00 27 1002.0
20260503230004 64 247 2.6 8.7 0.00 0.00 0.00 26 1002.0
20260503225005 64 272 2.6 13.0 0.00 0.00 0.00 24 1002.0
20260503224709 64 288 1.7 8.7 0.00 0.00 0.00 25 1001.9
20260503224004 64 252 4.3 14.8 0.00 0.00 0.00 27 1001.9
20260503223004 64 165 1.7 11.3 0.00 0.00 0.00 23 1002.0
20260503222005 64 254 3.5 13.0 0.00 0.00 0.00 28 1002.1
20260503221710 64 219 2.6 2.6 0.00 0.00 0.00 25 1002.0
20260503221004 64 270 6.1 13.0 0.00 0.00 0.00 22 1001.9
20260503215005 64 269 6.1 13.9 0.00 0.00 0.00 24 1002.0
20260503214710 64 288 6.1 10.4 0.00 0.00 0.00 24 1002.1
20260503212005 65 300 6.1 14.8 0.00 0.00 0.00 26 1001.9
20260503211709 64 284 5.2 10.4 0.00 0.00 0.00 24 1002.0
20260503211004 65 304 6.1 13.9 0.00 0.00 0.00 24 1001.9
20260503210005 65 272 4.3 13.9 0.00 0.00 0.00 24 1001.9
20260503204710 64 271 8.7 14.8 0.00 0.00 0.00 28 1002.1
20260503204004 64 254 10.4 15.6 0.00 0.00 0.00 27 1002.1
20260503203209 65 289 5.2 12.2 0.00 0.00 0.00 28 1002.1
20260503203004 65 326 6.1 13.0 0.00 0.00 0.00 28 1001.9
20260503202004 64 252 6.1 14.8 0.00 0.00 0.00 33 1002.3
20260503201709 64 295 8.7 12.2 0.00 0.00 0.00 32 1002.3
20260503201004 64 275 12.2 21.7 0.00 0.00 0.00 31 1002.3
20260503200004 65 263 7.0 13.9 0.00 0.00 0.00 32 1002.2
20260503195005 64 337 6.1 18.2 0.00 0.00 0.00 34 1002.1
20260503194710 64 247 4.3 5.2 0.00 0.00 0.00 32 1002.2
20260503194004 65 263 7.8 13.9 0.00 0.00 0.00 31 1002.4
20260503193004 64 279 6.1 20.0 0.00 0.00 0.00 32 1002.4